BAW382 EGLL-LFBZ

Flight info

Callsign BAW382
Flight time 1h 21m
Altitude 27000
Route MAXIT Y803 MID L151 SITET UN859 SOPIL DCT TUDRA DCT CHALA DCT VAVIX DCT MAGEC
Aircraft A319/M-SDE3FGHIRWY/LB1

Departure

Time 2026-04-24 05:02
Airport London Heathrow Airport (EGLL)

Arrival

Time 2026-04-24 06:23
Airport Biarritz Pays Basque airport (LFBZ)
Time Latitude Longitude Altitude Speed Heading
2026-04-24 04:17 51.46931 -0.48859 90 ft 0 kts 360°
2026-04-24 04:55 51.46922 -0.48859 86 ft 3 kts 360°
2026-04-24 04:55 51.46901 -0.48859 86 ft 3 kts 360°
2026-04-24 04:56 51.46884 -0.48858 86 ft 3 kts 324°
2026-04-24 04:56 51.46876 -0.48839 90 ft 2 kts 272°
2026-04-24 04:56 51.46876 -0.48821 86 ft 3 kts 270°
2026-04-24 04:56 51.46876 -0.48789 88 ft 3 kts 270°
2026-04-24 04:57 51.46876 -0.48757 86 ft 3 kts 270°
2026-04-24 04:57 51.46877 -0.48724 86 ft 3 kts 270°
2026-04-24 04:57 51.46877 -0.48703 86 ft 1 kts 270°
2026-04-24 04:57 51.46877 -0.48702 86 ft 0 kts 270°
2026-04-24 04:59 51.46872 -0.48734 89 ft 6 kts 240°
2026-04-24 04:59 51.46822 -0.48751 86 ft 8 kts 180°
2026-04-24 05:00 51.46769 -0.48750 89 ft 7 kts 179°
2026-04-24 05:00 51.46719 -0.48750 86 ft 7 kts 180°
2026-04-24 05:00 51.46672 -0.48749 86 ft 7 kts 179°
2026-04-24 05:00 51.46626 -0.48753 87 ft 7 kts 191°
2026-04-24 05:01 51.46564 -0.48787 88 ft 12 kts 198°
2026-04-24 05:01 51.46487 -0.48738 90 ft 14 kts 120°
2026-04-24 05:01 51.46478 -0.48509 86 ft 41 kts 90°
2026-04-24 05:01 51.46484 -0.47698 87 ft 103 kts 89°
2026-04-24 05:02 51.46493 -0.46243 92 ft 157 kts 88°
2026-04-24 05:02 51.46510 -0.44421 573 ft 169 kts 88°
2026-04-24 05:02 51.46522 -0.42435 1106 ft 187 kts 91°
2026-04-24 05:02 51.46081 -0.40374 1557 ft 212 kts 119°
2026-04-24 05:03 51.45155 -0.38357 2098 ft 239 kts 135°
2026-04-24 05:03 51.43633 -0.37116 3009 ft 252 kts 157°
2026-04-24 05:03 51.41961 -0.36203 4054 ft 256 kts 159°
2026-04-24 05:03 51.40188 -0.35728 5052 ft 266 kts 182°
2026-04-24 05:04 51.38401 -0.36638 6009 ft 276 kts 204°
2026-04-24 05:04 51.36674 -0.38050 6961 ft 281 kts 204°
2026-04-24 05:04 51.34917 -0.39468 7852 ft 285 kts 204°
2026-04-24 05:04 51.33130 -0.40891 8775 ft 289 kts 203°
2026-04-24 05:05 51.31319 -0.42320 9668 ft 292 kts 203°
2026-04-24 05:05 51.29479 -0.43758 10531 ft 297 kts 203°
2026-04-24 05:05 51.27543 -0.45262 10851 ft 321 kts 203°
2026-04-24 05:05 51.25467 -0.46889 11089 ft 344 kts 204°
2026-04-24 05:06 51.23279 -0.48628 11581 ft 356 kts 204°
2026-04-24 05:06 51.21051 -0.50395 12291 ft 359 kts 204°
2026-04-24 05:06 51.18828 -0.52132 13035 ft 362 kts 204°
2026-04-24 05:06 51.16557 -0.53891 13790 ft 364 kts 204°
2026-04-24 05:07 51.14269 -0.55655 14491 ft 367 kts 204°
2026-04-24 05:07 51.11964 -0.57430 15178 ft 369 kts 204°
2026-04-24 05:07 51.09639 -0.59175 15848 ft 370 kts 200°
2026-04-24 05:07 51.07173 -0.60333 16511 ft 370 kts 188°
2026-04-24 05:08 51.04610 -0.60636 17190 ft 370 kts 176°
2026-04-24 05:08 51.02062 -0.60069 17877 ft 371 kts 165°
2026-04-24 05:08 50.99631 -0.58688 18560 ft 373 kts 156°
2026-04-24 05:08 50.97231 -0.57088 19172 ft 375 kts 157°
2026-04-24 05:09 50.94816 -0.55493 19772 ft 377 kts 157°
2026-04-24 05:09 50.92386 -0.53896 20380 ft 379 kts 158°
2026-04-24 05:09 50.89944 -0.52293 20970 ft 381 kts 158°
2026-04-24 05:09 50.87486 -0.50679 21538 ft 383 kts 158°
2026-04-24 05:10 50.85017 -0.49056 22098 ft 385 kts 158°
2026-04-24 05:10 50.82532 -0.47424 22637 ft 387 kts 158°
2026-04-24 05:10 50.80035 -0.45789 23158 ft 390 kts 158°
2026-04-24 05:10 50.77524 -0.44147 23665 ft 392 kts 158°
2026-04-24 05:11 50.75030 -0.42517 24118 ft 394 kts 158°
2026-04-24 05:11 50.72454 -0.40831 24511 ft 397 kts 159°
2026-04-24 05:11 50.69888 -0.39155 24867 ft 401 kts 159°
2026-04-24 05:11 50.67334 -0.37492 25206 ft 405 kts 159°
2026-04-24 05:12 50.64718 -0.35796 25555 ft 408 kts 159°
2026-04-24 05:12 50.62077 -0.34087 25865 ft 413 kts 160°
2026-04-24 05:12 50.59402 -0.32354 26169 ft 418 kts 160°
2026-04-24 05:12 50.56698 -0.30599 26495 ft 422 kts 160°
2026-04-24 05:13 50.51213 -0.27044 27144 ft 430 kts 160°
2026-04-24 05:13 50.48434 -0.25248 27459 ft 434 kts 160°
2026-04-24 05:13 50.45632 -0.23441 27770 ft 438 kts 160°
2026-04-24 05:14 50.42801 -0.21619 28071 ft 441 kts 160°
2026-04-24 05:14 50.39945 -0.19784 28318 ft 446 kts 161°
2026-04-24 05:14 50.37056 -0.17931 28559 ft 451 kts 161°
2026-04-24 05:14 50.34139 -0.16060 28834 ft 455 kts 161°
2026-04-24 05:15 50.31201 -0.14179 29105 ft 458 kts 161°
2026-04-24 05:15 50.28236 -0.12285 29384 ft 462 kts 161°
2026-04-24 05:15 50.25250 -0.10378 29649 ft 465 kts 161°
2026-04-24 05:15 50.22244 -0.08456 29906 ft 469 kts 161°
2026-04-24 05:16 50.19221 -0.06503 30153 ft 472 kts 160°
2026-04-24 05:16 50.16197 -0.04462 30479 ft 474 kts 159°
2026-04-24 05:16 50.14205 -0.03076 30690 ft 474 kts 159°
2026-04-24 05:16 50.10165 -0.00311 31155 ft 472 kts 162°
2026-04-24 05:17 50.08103 0.00728 31428 ft 469 kts 168°
2026-04-24 05:17 50.04955 0.02008 31820 ft 467 kts 168°
2026-04-24 05:17 50.01809 0.03259 32222 ft 466 kts 168°
2026-04-24 05:17 49.98666 0.04491 32613 ft 465 kts 169°
2026-04-24 05:18 49.95531 0.05708 32981 ft 464 kts 168°
2026-04-24 05:18 49.92400 0.06927 33362 ft 464 kts 168°
2026-04-24 05:18 49.89273 0.08151 33753 ft 463 kts 168°
2026-04-24 05:18 49.86151 0.09374 34142 ft 463 kts 168°
2026-04-24 05:19 49.83031 0.10597 34275 ft 462 kts 168°
2026-04-24 05:19 49.76828 0.13023 34283 ft 459 kts 168°
2026-04-24 05:20 49.70638 0.15430 34280 ft 459 kts 168°
2026-04-24 05:20 49.64452 0.17860 34276 ft 459 kts 167°
2026-04-24 05:21 49.58277 0.20369 34271 ft 459 kts 167°
2026-04-24 05:21 49.52099 0.22878 34263 ft 459 kts 167°
2026-04-24 05:22 49.45918 0.25351 34264 ft 459 kts 167°
2026-04-24 05:22 49.39732 0.27811 34264 ft 459 kts 167°
2026-04-24 05:23 49.33548 0.30277 34265 ft 459 kts 167°
2026-04-24 05:23 49.27365 0.32776 34260 ft 460 kts 166°
2026-04-24 05:24 49.21200 0.35391 34259 ft 460 kts 166°
2026-04-24 05:24 49.15040 0.38036 34263 ft 460 kts 166°
2026-04-24 05:25 49.08867 0.40633 34265 ft 460 kts 166°
2026-04-24 05:25 49.02691 0.43202 34254 ft 460 kts 166°
2026-04-24 05:26 48.96510 0.45779 34258 ft 461 kts 166°
2026-04-24 05:26 48.90318 0.48353 34260 ft 461 kts 166°
2026-04-24 05:27 48.84166 0.50908 34261 ft 461 kts 166°
2026-04-24 05:27 48.77930 0.53489 34260 ft 461 kts 166°
2026-04-24 05:28 48.71719 0.55953 34258 ft 461 kts 167°
2026-04-24 05:28 48.65500 0.58363 34258 ft 461 kts 167°
2026-04-24 05:29 48.59324 0.60759 34239 ft 462 kts 166°
2026-04-24 05:29 48.53099 0.63176 34231 ft 462 kts 166°
2026-04-24 05:30 48.46879 0.65639 34224 ft 462 kts 166°
2026-04-24 05:30 48.40666 0.68189 34225 ft 463 kts 165°
2026-04-24 05:31 48.34445 0.70748 34217 ft 464 kts 166°
2026-04-24 05:31 48.28213 0.73279 34217 ft 464 kts 166°
2026-04-24 05:32 48.21974 0.75780 34210 ft 464 kts 166°
2026-04-24 05:32 48.15721 0.78236 34206 ft 465 kts 166°
2026-04-24 05:33 48.09453 0.80684 34205 ft 466 kts 166°
2026-04-24 05:33 48.03179 0.83134 34202 ft 466 kts 166°
2026-04-24 05:34 47.93769 0.86810 34194 ft 467 kts 166°
2026-04-24 05:34 47.87479 0.89253 34183 ft 467 kts 166°
2026-04-24 05:35 47.81185 0.91708 34185 ft 468 kts 166°
2026-04-24 05:35 47.74878 0.94163 34178 ft 469 kts 166°
2026-04-24 05:36 47.68560 0.96610 34171 ft 470 kts 166°
2026-04-24 05:36 47.62229 0.99047 34165 ft 470 kts 166°
2026-04-24 05:37 47.55887 1.01474 34169 ft 471 kts 166°
2026-04-24 05:37 47.49538 1.03898 34165 ft 472 kts 166°
2026-04-24 05:38 47.43148 1.06088 34167 ft 471 kts 173°
2026-04-24 05:38 47.36606 1.06307 34162 ft 470 kts 182°
2026-04-24 05:39 47.30105 1.06139 34162 ft 471 kts 182°
2026-04-24 05:39 47.23551 1.05987 34159 ft 471 kts 182°
2026-04-24 05:40 47.16992 1.05834 34156 ft 472 kts 182°
2026-04-24 05:40 47.10429 1.05677 34153 ft 472 kts 182°
2026-04-24 05:41 47.03877 1.05289 34153 ft 470 kts 190°
2026-04-24 05:41 46.97631 1.02684 34163 ft 466 kts 204°
2026-04-24 05:42 46.91586 0.99241 34160 ft 466 kts 203°
2026-04-24 05:42 46.85533 0.95829 34156 ft 466 kts 203°
2026-04-24 05:43 46.79485 0.92427 34149 ft 466 kts 203°
2026-04-24 05:43 46.73439 0.89031 34147 ft 466 kts 203°
2026-04-24 05:44 46.67394 0.85642 34142 ft 465 kts 203°
2026-04-24 05:44 46.61353 0.82257 34135 ft 465 kts 203°
2026-04-24 05:45 46.55321 0.78877 34124 ft 464 kts 203°
2026-04-24 05:45 46.49298 0.75514 34142 ft 463 kts 203°
2026-04-24 05:46 46.43301 0.72149 34145 ft 462 kts 203°
2026-04-24 05:46 46.37346 0.68820 34137 ft 461 kts 203°
2026-04-24 05:47 46.31318 0.65464 34131 ft 461 kts 203°
2026-04-24 05:47 46.25381 0.62161 34128 ft 460 kts 203°
2026-04-24 05:48 46.19412 0.58852 34124 ft 459 kts 203°
2026-04-24 05:48 46.13448 0.55545 34120 ft 459 kts 203°
2026-04-24 05:49 46.07492 0.52251 34119 ft 458 kts 203°
2026-04-24 05:49 46.01542 0.48973 34115 ft 458 kts 203°
2026-04-24 05:50 45.95593 0.45697 34107 ft 458 kts 203°
2026-04-24 05:50 45.89651 0.42436 34109 ft 457 kts 203°
2026-04-24 05:51 45.83710 0.39188 34098 ft 457 kts 203°
2026-04-24 05:51 45.77780 0.35951 34113 ft 455 kts 203°
2026-04-24 05:52 45.71869 0.32732 34115 ft 454 kts 203°
2026-04-24 05:52 45.65970 0.29525 34109 ft 453 kts 203°
2026-04-24 05:53 45.60079 0.26324 34099 ft 453 kts 203°
2026-04-24 05:53 45.54194 0.23135 34091 ft 452 kts 203°
2026-04-24 05:54 45.48352 0.19979 34092 ft 452 kts 203°
2026-04-24 05:54 45.42466 0.16818 34090 ft 452 kts 203°
2026-04-24 05:55 45.36584 0.13652 34082 ft 452 kts 204°
2026-04-24 05:55 45.31028 0.09569 34085 ft 449 kts 211°
2026-04-24 05:56 45.25553 0.05291 33938 ft 450 kts 211°
2026-04-24 05:56 45.22809 0.03154 33665 ft 450 kts 211°
2026-04-24 05:56 45.20060 0.01019 33395 ft 451 kts 211°
2026-04-24 05:57 45.17305 -0.01118 33118 ft 451 kts 210°
2026-04-24 05:57 45.14554 -0.03250 32854 ft 450 kts 210°
2026-04-24 05:57 45.11806 -0.05379 32591 ft 450 kts 210°
2026-04-24 05:57 45.09060 -0.07504 32332 ft 450 kts 210°
2026-04-24 05:58 45.06312 -0.09629 32075 ft 450 kts 210°
2026-04-24 05:58 45.03561 -0.11754 31825 ft 451 kts 210°
2026-04-24 05:58 45.00803 -0.13881 31566 ft 452 kts 210°
2026-04-24 05:58 44.98045 -0.16007 31312 ft 452 kts 210°
2026-04-24 05:59 44.95280 -0.18137 31069 ft 452 kts 210°
2026-04-24 05:59 44.92515 -0.20261 30829 ft 453 kts 210°
2026-04-24 05:59 44.89749 -0.22383 30584 ft 453 kts 210°
2026-04-24 05:59 44.86979 -0.24511 30339 ft 454 kts 210°
2026-04-24 06:00 44.84207 -0.26642 30089 ft 454 kts 210°
2026-04-24 06:00 44.81431 -0.28776 29802 ft 455 kts 210°
2026-04-24 06:00 44.78650 -0.30907 29519 ft 456 kts 210°
2026-04-24 06:00 44.75861 -0.33037 29241 ft 456 kts 210°
2026-04-24 06:01 44.73065 -0.35165 28964 ft 457 kts 210°
2026-04-24 06:01 44.70303 -0.37267 28700 ft 458 kts 210°
2026-04-24 06:01 44.67499 -0.39400 28427 ft 459 kts 210°
2026-04-24 06:01 44.64686 -0.41538 28162 ft 460 kts 210°
2026-04-24 06:02 44.61870 -0.43676 27895 ft 461 kts 210°
2026-04-24 06:02 44.59050 -0.45819 27628 ft 461 kts 210°
2026-04-24 06:02 44.56234 -0.47962 27171 ft 458 kts 210°
2026-04-24 06:02 44.53425 -0.50091 26217 ft 458 kts 210°
2026-04-24 06:03 44.50635 -0.52197 25507 ft 453 kts 210°
2026-04-24 06:03 44.47875 -0.54276 24766 ft 448 kts 210°
2026-04-24 06:03 44.45142 -0.56332 24033 ft 444 kts 210°
2026-04-24 06:03 44.42428 -0.58374 23246 ft 441 kts 210°
2026-04-24 06:04 44.39745 -0.60394 22512 ft 435 kts 210°
2026-04-24 06:04 44.37104 -0.62386 21800 ft 429 kts 210°
2026-04-24 06:04 44.34496 -0.64351 21113 ft 423 kts 210°
2026-04-24 06:04 44.31925 -0.66289 20437 ft 417 kts 210°
2026-04-24 06:05 44.29383 -0.68200 19784 ft 413 kts 210°
2026-04-24 06:05 44.26929 -0.70209 19173 ft 407 kts 216°
2026-04-24 06:05 44.24610 -0.72436 18589 ft 403 kts 216°
2026-04-24 06:05 44.23084 -0.73897 18184 ft 400 kts 216°
2026-04-24 06:06 44.20802 -0.76081 17586 ft 395 kts 216°
2026-04-24 06:06 44.18551 -0.78232 17033 ft 389 kts 216°
2026-04-24 06:06 44.16332 -0.80348 16471 ft 383 kts 216°
2026-04-24 06:06 44.14148 -0.82427 15916 ft 377 kts 216°
2026-04-24 06:07 44.11997 -0.84475 15352 ft 372 kts 216°
2026-04-24 06:07 44.09870 -0.86495 14778 ft 368 kts 215°
2026-04-24 06:07 44.07765 -0.88492 14214 ft 364 kts 215°
2026-04-24 06:07 44.05680 -0.90468 13582 ft 361 kts 215°
2026-04-24 06:08 44.03614 -0.92427 12976 ft 357 kts 215°
2026-04-24 06:08 44.01576 -0.94363 12374 ft 353 kts 215°
2026-04-24 06:08 43.99560 -0.96276 11780 ft 349 kts 215°
2026-04-24 06:08 43.97562 -0.98168 11189 ft 346 kts 215°
2026-04-24 06:09 43.95596 -1.00029 10895 ft 335 kts 216°
2026-04-24 06:09 43.93719 -1.01805 10776 ft 319 kts 216°
2026-04-24 06:09 43.91923 -1.03503 10650 ft 306 kts 216°
2026-04-24 06:09 43.90197 -1.05136 10492 ft 296 kts 216°
2026-04-24 06:10 43.88512 -1.06725 10234 ft 291 kts 216°
2026-04-24 06:10 43.86847 -1.08289 10003 ft 288 kts 216°
2026-04-24 06:10 43.85194 -1.09842 9874 ft 286 kts 216°
2026-04-24 06:11 43.81897 -1.12944 9614 ft 286 kts 216°
2026-04-24 06:11 43.80253 -1.14489 9324 ft 285 kts 216°
2026-04-24 06:11 43.78614 -1.16029 8937 ft 284 kts 216°
2026-04-24 06:11 43.76984 -1.17559 8548 ft 283 kts 216°
2026-04-24 06:12 43.75500 -1.19323 8159 ft 281 kts 229°
2026-04-24 06:12 43.74397 -1.21536 7799 ft 279 kts 243°
2026-04-24 06:12 43.73679 -1.24013 7466 ft 277 kts 250°
2026-04-24 06:12 43.73028 -1.26509 7131 ft 276 kts 249°
2026-04-24 06:13 43.72377 -1.28998 6800 ft 275 kts 249°
2026-04-24 06:13 43.71725 -1.31479 6461 ft 274 kts 249°
2026-04-24 06:13 43.71074 -1.33950 6112 ft 273 kts 249°
2026-04-24 06:13 43.70427 -1.36403 5775 ft 271 kts 249°
2026-04-24 06:14 43.69784 -1.38841 5443 ft 269 kts 249°
2026-04-24 06:14 43.69146 -1.41258 5115 ft 266 kts 248°
2026-04-24 06:14 43.68318 -1.43516 4943 ft 262 kts 240°
2026-04-24 06:14 43.67438 -1.45726 4889 ft 262 kts 241°
2026-04-24 06:15 43.66565 -1.47935 4817 ft 262 kts 241°
2026-04-24 06:15 43.65694 -1.50141 4686 ft 261 kts 241°
2026-04-24 06:15 43.64826 -1.52341 4558 ft 260 kts 240°
2026-04-24 06:15 43.63961 -1.54531 4432 ft 259 kts 241°
2026-04-24 06:16 43.63099 -1.56711 4301 ft 258 kts 240°
2026-04-24 06:16 43.62183 -1.58832 4179 ft 257 kts 233°
2026-04-24 06:16 43.61142 -1.60774 4056 ft 247 kts 232°
2026-04-24 06:16 43.60141 -1.62642 3931 ft 237 kts 232°
2026-04-24 06:17 43.59180 -1.64434 3819 ft 227 kts 232°
2026-04-24 06:17 43.58258 -1.66152 3687 ft 218 kts 232°
2026-04-24 06:17 43.57375 -1.67801 3554 ft 210 kts 231°
2026-04-24 06:17 43.56523 -1.69389 3439 ft 208 kts 231°
2026-04-24 06:18 43.55668 -1.70985 3312 ft 206 kts 231°
2026-04-24 06:18 43.54789 -1.72535 3185 ft 204 kts 222°
2026-04-24 06:18 43.53623 -1.73585 3058 ft 201 kts 200°
2026-04-24 06:18 43.52255 -1.73890 2936 ft 201 kts 180°
2026-04-24 06:19 43.50858 -1.73845 2792 ft 200 kts 180°
2026-04-24 06:19 43.49480 -1.73812 2621 ft 195 kts 180°
2026-04-24 06:19 43.48151 -1.73765 2543 ft 189 kts 176°
2026-04-24 06:19 43.47002 -1.73009 2462 ft 187 kts 134°
2026-04-24 06:20 43.46597 -1.71316 2354 ft 194 kts 96°
2026-04-24 06:20 43.46619 -1.69466 2272 ft 193 kts 94°
2026-04-24 06:20 43.46650 -1.67673 2126 ft 181 kts 94°
2026-04-24 06:20 43.46681 -1.65992 2015 ft 173 kts 94°
2026-04-24 06:21 43.46706 -1.64357 1830 ft 167 kts 94°
2026-04-24 06:21 43.46728 -1.62817 1602 ft 155 kts 94°
2026-04-24 06:21 43.46747 -1.61420 1400 ft 140 kts 93°
2026-04-24 06:21 43.46760 -1.60114 1217 ft 134 kts 93°
2026-04-24 06:22 43.46772 -1.58845 1046 ft 131 kts 92°
2026-04-24 06:22 43.46786 -1.57603 880 ft 129 kts 91°
2026-04-24 06:22 43.46790 -1.56384 714 ft 126 kts 90°
2026-04-24 06:22 43.46797 -1.55192 506 ft 124 kts 88°
2026-04-24 06:23 43.46818 -1.54011 360 ft 123 kts 88°
2026-04-24 06:23 43.46832 -1.52855 248 ft 111 kts 89°
2026-04-24 06:23 43.46843 -1.51941 239 ft 78 kts 89°
2026-04-24 06:23 43.46849 -1.51520 236 ft 25 kts 88°
2026-04-24 06:24 43.46837 -1.51359 240 ft 9 kts 107°
2026-04-24 06:24 43.46852 -1.51359 238 ft 10 kts 287°
2026-04-24 06:24 43.46847 -1.51586 236 ft 38 kts 268°
2026-04-24 06:24 43.46841 -1.51935 239 ft 26 kts 269°
2026-04-24 06:25 43.46838 -1.52112 239 ft 13 kts 271°
2026-04-24 06:25 43.46908 -1.52174 239 ft 15 kts
2026-04-24 06:25 43.46994 -1.52234 242 ft 15 kts 286°
2026-04-24 06:25 43.46996 -1.52390 243 ft 17 kts 267°
2026-04-24 06:26 43.46993 -1.52562 245 ft 19 kts 269°
2026-04-24 06:26 43.46992 -1.52753 245 ft 17 kts 269°
2026-04-24 06:26 43.47004 -1.52861 245 ft 12 kts 307°
2026-04-24 06:26 43.47055 -1.52947 245 ft 11 kts 272°
2026-04-24 06:27 43.47059 -1.53029 245 ft 7 kts 301°
2026-04-24 06:27 43.47113 -1.53056 245 ft 10 kts 345°
2026-04-24 06:27 43.47138 -1.53064 245 ft 3 kts 345°
2026-04-24 06:27 43.47141 -1.53066 245 ft 0 kts 345°